EW1090 Weather Reports


time (UTC)temp
C
wind
direction
speed
KPH
gust
KPH
rain 1hr
cm
rain 24hr
cm
rain mn
cm
humidity
%
barometer
mb
20211017164825 21 24 3.2 14.5 0.00 0.00 0.00 47 1024.9
20211017164324 21 344 4.8 16.1 0.00 0.00 0.00 46 1024.9
20211017163821 21 10 3.2 16.1 0.00 0.00 0.00 48 1024.9
20211017163320 21 16 8.0 22.5 0.00 0.00 0.00 46 1025.1
20211017162815 21 13 6.4 22.5 0.00 0.00 0.00 46 1025.1
20211017162312 21 17 3.2 17.7 0.00 0.00 0.00 48 1025.0
20211017161811 21 34 4.8 19.3 0.00 0.00 0.00 47 1025.1
20211017160820 20 11 6.4 16.1 0.00 0.00 0.00 49 1025.1
20211017160317 20 61 6.4 17.7 0.00 0.00 0.00 48 1025.2
20211017155814 20 88 6.4 19.3 0.00 0.00 0.00 49 1025.2
20211017155311 20 38 6.4 19.3 0.00 0.00 0.00 48 1025.1
20211017154809 20 32 6.4 19.3 0.00 0.00 0.00 49 1025.1
20211017154325 20 57 3.2 12.9 0.00 0.00 0.00 52 1025.1
20211017153807 20 19 4.8 14.5 0.00 0.00 0.00 52 1025.2
20211017153326 20 68 6.4 14.5 0.00 0.00 0.00 53 1025.2
20211017152820 20 50 8.0 17.7 0.00 0.00 0.00 51 1025.2
20211017152321 20 67 6.4 17.7 0.00 0.00 0.00 51 1025.2
20211017151817 20 34 8.0 17.7 0.00 0.00 0.00 51 1025.3
20211017151313 19 49 4.8 17.7 0.00 0.00 0.00 53 1025.3
20211017150811 19 69 8.0 17.7 0.00 0.00 0.00 52 1025.3
20211017150307 19 36 3.2 17.7 0.00 0.00 0.00 56 1025.2
20211017145807 19 32 9.7 17.7 0.00 0.00 0.00 52 1025.3
20211017145323 19 15 6.4 16.1 0.00 0.00 0.00 55 1025.3
20211017144818 19 112 6.4 20.9 0.00 0.00 0.00 57 1025.3
20211017144315 19 26 8.0 20.9 0.00 0.00 0.00 55 1025.2
20211017143813 19 44 8.0 16.1 0.00 0.00 0.00 56 1025.3
20211017143308 19 5 8.0 16.1 0.00 0.00 0.00 56 1025.2
20211017142824 19 74 4.8 16.1 0.00 0.00 0.00 57 1025.2
20211017142321 19 40 9.7 17.7 0.00 0.00 0.00 54 1025.2
20211017141817 19 74 3.2 17.7 0.00 0.00 0.00 57 1025.0
20211017141313 18 32 4.8 17.7 0.00 0.00 0.00 56 1025.0
20211017140809 18 350 4.8 19.3 0.00 0.00 0.00 57 1025.0
20211017140326 18 110 8.0 19.3 0.00 0.00 0.00 56 1024.9
20211017135821 18 13 4.8 17.7 0.00 0.00 0.00 57 1024.9
20211017135319 18 34 8.0 17.7 0.00 0.00 0.00 56 1024.9
20211017134820 18 40 4.8 17.7 0.00 0.00 0.00 58 1024.9
20211017134317 18 13 8.0 17.7 0.00 0.00 0.00 57 1024.9
20211017133816 18 360 6.4 19.3 0.00 0.00 0.00 57 1024.8
20211017133313 18 34 6.4 20.9 0.00 0.00 0.00 58 1024.9
20211017132813 18 26 4.8 20.9 0.00 0.00 0.00 58 1024.7
20211017132310 17 41 6.4 12.9 0.00 0.00 0.00 60 1024.7
20211017131824 17 38 6.4 14.5 0.00 0.00 0.00 61 1024.6
20211017131322 17 80 6.4 14.5 0.00 0.00 0.00 62 1024.5
20211017130819 17 23 6.4 14.5 0.00 0.00 0.00 63 1024.6
20211017130315 17 360 3.2 16.1 0.00 0.00 0.00 63 1024.6
20211017125813 17 355 3.2 16.1 0.00 0.00 0.00 62 1024.5
20211017125308 17 15 6.4 19.3 0.00 0.00 0.00 62 1024.5
20211017124807 16 42 3.2 16.1 0.00 0.00 0.00 65 1024.5
20211017124321 16 105 4.8 16.1 0.00 0.00 0.00 64 1024.5
20211017123822 16 53 3.2 11.3 0.00 0.00 0.00 63 1024.4
20211017123318 16 17 3.2 11.3 0.00 0.00 0.00 63 1024.5
20211017122815 16 13 4.8 11.3 0.00 0.00 0.00 63 1024.5
20211017122313 16 104 3.2 14.5 0.00 0.00 0.00 61 1024.4
20211017121812 16 28 4.8 14.5 0.00 0.00 0.00 62 1024.2
20211017121310 16 28 4.8 16.1 0.00 0.00 0.00 61 1024.2
20211017120809 16 26 4.8 19.3 0.00 0.00 0.00 62 1024.2
20211017120325 16 11 4.8 17.7 0.00 0.00 0.00 62 1024.2
20211017115312 16 97 6.4 20.9 0.00 0.00 0.00 61 1024.0
20211017114808 16 34 6.4 20.9 0.00 0.00 0.00 62 1024.0
20211017114323 16 39 4.8 16.1 0.00 0.00 0.00 62 1024.0
20211017113822 16 28 8.0 17.7 0.00 0.00 0.00 61 1024.0
20211017113319 16 57 6.4 17.7 0.00 0.00 0.00 63 1023.9
20211017112819 16 42 6.4 19.3 0.00 0.00 0.00 64 1023.9
20211017112320 16 19 6.4 17.7 0.00 0.00 0.00 65 1023.9
20211017111818 16 22 8.0 17.7 0.00 0.00 0.00 63 1023.8
20211017111315 16 345 6.4 16.1 0.00 0.00 0.00 64 1023.7
20211017110321 16 48 4.8 14.5 0.00 0.00 0.00 64 1023.8
20211017105819 16 13 6.4 17.7 0.00 0.00 0.00 64 1023.7
20211017105317 17 103 4.8 22.5 0.00 0.00 0.00 64 1023.6
20211017104815 17 38 6.4 22.5 0.00 0.00 0.00 64 1023.5
20211017104315 17 53 6.4 19.3 0.00 0.00 0.00 64 1023.5
20211017103817 17 17 8.0 22.5 0.00 0.00 0.00 64 1023.5
20211017103314 17 38 8.0 22.5 0.00 0.00 0.00 63 1023.5
20211017102810 17 55 4.8 24.1 0.00 0.00 0.00 65 1023.5
20211017102309 17 32 8.0 24.1 0.00 0.00 0.00 65 1023.4
20211017101827 17 13 9.7 22.5 0.00 0.00 0.00 64 1023.4
20211017101325 17 27 8.0 22.5 0.00 0.00 0.00 64 1023.3
20211017100825 17 50 6.4 22.5 0.00 0.00 0.00 64 1023.3
20211017100321 17 344 4.8 20.9 0.00 0.00 0.00 64 1023.2
20211017095821 17 11 6.4 20.9 0.00 0.00 0.00 63 1023.2
20211017095320 17 34 8.0 22.5 0.00 0.00 0.00 64 1023.1
20211017094818 17 14 6.4 24.1 0.00 0.00 0.00 63 1023.1
20211017094316 17 5 11.3 24.1 0.00 0.00 0.00 63 1023.1
20211017093816 17 43 4.8 17.7 0.00 0.00 0.00 64 1023.0
20211017093315 17 360 9.7 19.3 0.00 0.00 0.00 63 1023.0
20211017092815 17 65 6.4 20.9 0.00 0.00 0.00 62 1023.0
20211017092315 17 11 8.0 20.9 0.00 0.00 0.00 63 1023.0
20211017091816 17 12 9.7 20.9 0.00 0.00 0.00 62 1023.0
20211017091314 17 5 4.8 16.1 0.00 0.00 0.00 62 1022.9
20211017090812 17 360 6.4 19.3 0.00 0.00 0.00 62 1023.0
20211017090311 17 33 9.7 24.1 0.00 0.00 0.00 61 1023.0
20211017085810 17 40 8.0 24.1 0.00 0.00 0.00 61 1023.0
20211017085309 17 43 4.8 20.9 0.00 0.00 0.00 61 1023.1
20211017084820 17 360 8.0 20.9 0.00 0.00 0.00 60 1023.0
20211017084319 17 20 8.0 22.5 0.00 0.00 0.00 61 1023.0
20211017083816 17 22 6.4 22.5 0.00 0.00 0.00 62 1022.9
20211017083313 17 22 6.4 22.5 0.00 0.00 0.00 61 1022.8
20211017082811 17 5 11.3 22.5 0.00 0.00 0.00 59 1022.9
20211017082309 17 360 8.0 19.3 0.00 0.00 0.00 62 1023.0
20211017081809 17 38 8.0 19.3 0.00 0.00 0.00 61 1022.9
20211017081308 17 38 9.7 19.3 0.00 0.00 0.00 60 1022.9
20211017080807 17 20 8.0 22.5 0.00 0.00 0.00 60 1022.9
20211017080324 17 66 8.0 22.5 0.00 0.00 0.00 62 1022.9
20211017075821 17 22 6.4 25.7 0.00 0.00 0.00 61 1022.9
20211017075321 17 13 9.7 25.7 0.00 0.00 0.00 60 1022.9
20211017074818 17 46 9.7 20.9 0.00 0.00 0.00 58 1022.9
20211017074308 17 338 8.0 25.7 0.00 0.00 0.00 60 1022.9
20211017073808 17 22 6.4 20.9 0.00 0.00 0.00 60 1023.0
20211017073328 17 15 6.4 20.9 0.00 0.00 0.00 61 1022.9
20211017072826 17 35 4.8 20.9 0.00 0.00 0.00 61 1023.0
20211017072326 17 33 11.3 20.9 0.00 0.00 0.00 59 1023.0
20211017071826 18 79 8.0 20.9 0.00 0.00 0.00 61 1023.0
20211017071324 18 63 6.4 20.9 0.00 0.00 0.00 61 1023.2
20211017070822 18 44 6.4 19.3 0.00 0.00 0.00 61 1023.1
20211017070318 18 16 8.0 19.3 0.00 0.00 0.00 59 1023.1
20211017065816 18 24 9.7 19.3 0.00 0.00 0.00 59 1023.1
20211017065313 18 254 9.7 30.6 0.00 0.00 0.00 60 1023.0
20211017064812 18 47 4.8 22.5 0.00 0.00 0.00 60 1023.0
20211017064309 18 5 9.7 22.5 0.00 0.00 0.00 58 1023.0
20211017063808 18 42 8.0 19.3 0.00 0.00 0.00 59 1023.0
20211017063327 18 69 11.3 22.5 0.00 0.00 0.00 57 1023.1
20211017062822 18 5 9.7 22.5 0.00 0.00 0.00 59 1023.1
20211017062320 18 19 12.9 20.9 0.00 0.00 0.00 57 1023.1
20211017061818 18 13 8.0 19.3 0.00 0.00 0.00 58 1023.0
20211017061318 18 51 9.7 24.1 0.00 0.00 0.00 57 1023.1
20211017060816 18 355 9.7 24.1 0.00 0.00 0.00 58 1023.0
20211017060312 18 355 6.4 22.5 0.00 0.00 0.00 58 1023.1
20211017055813 18 70 8.0 22.5 0.00 0.00 0.00 57 1023.0
20211017055310 18 37 8.0 19.3 0.00 0.00 0.00 57 1023.1
20211017054823 18 9 8.0 19.3 0.00 0.00 0.00 57 1023.0
20211017054319 18 36 6.4 19.3 0.00 0.00 0.00 59 1023.1
20211017053818 18 40 3.2 19.3 0.00 0.00 0.00 60 1023.1
20211017053316 18 5 6.4 19.3 0.00 0.00 0.00 60 1023.1
20211017052813 18 105 4.8 20.9 0.00 0.00 0.00 59 1023.2
20211017052312 18 18 4.8 22.5 0.00 0.00 0.00 58 1023.2
20211017051811 18 30 11.3 22.5 0.00 0.00 0.00 57 1023.1
20211017051309 18 57 8.0 22.5 0.00 0.00 0.00 59 1023.2
20211017050808 18 14 8.0 19.3 0.00 0.00 0.00 57 1023.1
20211017050326 18 31 6.4 19.3 0.00 0.00 0.00 58 1023.2
20211017045817 18 32 8.0 19.3 0.00 0.00 0.00 57 1023.1
20211017045317 18 17 6.4 16.1 0.00 0.00 0.00 56 1023.1
20211017044814 18 19 8.0 27.4 0.00 0.00 0.00 57 1023.3
20211017044311 18 43 12.9 27.4 0.00 0.00 0.00 55 1023.2
20211017043829 19 350 8.0 19.3 0.00 0.00 0.00 57 1023.2
20211017043325 19 66 6.4 19.3 0.00 0.00 0.00 56 1023.1
20211017042825 19 19 9.7 22.5 0.00 0.00 0.00 55 1023.2
20211017042324 19 83 11.3 22.5 0.00 0.00 0.00 54 1023.1
20211017041823 19 26 6.4 22.5 0.00 0.00 0.00 57 1023.1
20211017041323 19 14 8.0 22.5 0.00 0.00 0.00 55 1023.1
20211017040823 19 44 8.0 22.5 0.00 0.00 0.00 55 1023.2
20211017040320 19 51 6.4 19.3 0.00 0.00 0.00 54 1023.1
20211017035820 19 360 6.4 19.3 0.00 0.00 0.00 56 1023.1
20211017035311 19 44 8.0 20.9 0.00 0.00 0.00 56 1023.1
20211017034811 19 15 8.0 20.9 0.00 0.00 0.00 55 1023.1
20211017034311 19 13 6.4 19.3 0.00 0.00 0.00 56 1023.1
20211017033808 19 22 8.0 19.3 0.00 0.00 0.00 57 1023.1
20211017033327 19 94 8.0 22.5 0.00 0.00 0.00 56 1023.1
20211017032825 19 5 8.0 22.5 0.00 0.00 0.00 55 1023.2
20211017032322 19 25 11.3 22.5 0.00 0.00 0.00 54 1023.0
20211017031820 20 42 4.8 24.1 0.00 0.00 0.00 52 1022.9
20211017031315 20 44 8.0 24.1 0.00 0.00 0.00 51 1023.1
20211017030814 20 227 8.0 19.3 0.00 0.00 0.00 52 1023.0
20211017030311 20 94 4.8 22.5 0.00 0.00 0.00 54 1023.0
20211017025809 20 69 9.7 22.5 0.00 0.00 0.00 52 1023.0
20211017025329 20 346 8.0 24.1 0.00 0.00 0.00 52 1022.9
20211017024825 20 36 9.7 24.1 0.00 0.00 0.00 52 1022.9
20211017024323 20 317 4.8 20.9 0.00 0.00 0.00 50 1022.8
20211017023823 20 56 8.0 17.7 0.00 0.00 0.00 50 1022.8
20211017023321 20 306 6.4 17.7 0.00 0.00 0.00 51 1022.8
20211017022819 20 360 6.4 17.7 0.00 0.00 0.00 52 1022.8
20211017022317 20 5 6.4 19.3 0.00 0.00 0.00 51 1022.7
20211017021813 20 360 8.0 22.5 0.00 0.00 0.00 49 1022.7
20211017021312 20 338 9.7 22.5 0.00 0.00 0.00 49 1022.6
20211017020811 20 360 6.4 25.7 0.00 0.00 0.00 51 1022.4
20211017015820 20 31 9.7 25.7 0.00 0.00 0.00 48 1022.4
20211017015319 20 23 3.2 17.7 0.00 0.00 0.00 51 1022.3
20211017014816 20 34 6.4 22.5 0.00 0.00 0.00 51 1022.2
20211017014316 20 360 6.4 16.1 0.00 0.00 0.00 50 1022.1
20211017013814 20 46 4.8 12.9 0.00 0.00 0.00 52 1022.1
20211017013310 20 96 3.2 12.9 0.00 0.00 0.00 52 1022.1
20211017012809 20 17 4.8 22.5 0.00 0.00 0.00 50 1021.9
20211017012308 20 76 4.8 22.5 0.00 0.00 0.00 49 1021.8
20211017011808 20 339 6.4 19.3 0.00 0.00 0.00 50 1021.8
20211017011327 20 324 4.8 20.9 0.00 0.00 0.00 50 1021.7
20211017010816 20 17 3.2 16.1 0.00 0.00 0.00 50 1021.6
20211017010312 20 9 3.2 17.7 0.00 0.00 0.00 48 1021.5
20211017005811 20 42 1.6 17.7 0.00 0.00 0.00 49 1021.6
20211017005309 20 57 8.0 17.7 0.00 0.00 0.00 49 1021.5
20211017004809 20 111 3.2 16.1 0.00 0.00 0.00 50 1021.3
20211017004308 20 51 4.8 14.5 0.00 0.00 0.00 52 1021.2
20211017003817 20 9 1.6 12.9 0.00 0.00 0.00 49 1021.2
20211017003315 20 13 3.2 14.5 0.00 0.00 0.00 49 1021.1
20211017002815 21 32 1.6 14.5 0.00 0.00 0.00 49 1021.0
20211017002313 21 355 3.2 27.4 0.00 0.00 0.00 51 1021.0
20211017001812 21 59 6.4 27.4 0.00 0.00 0.00 49 1020.9
20211017001312 21 28 3.2 12.9 0.00 0.00 0.00 50 1020.9
20211017000808 21 340 1.6 16.1 0.00 0.00 0.00 49 1020.8
20211017000326 21 311 1.6 16.1 0.00 0.00 0.00 50 1020.8
20211016235825 21 319 1.6 17.7 0.00 0.00 0.00 48 1020.7
20211016235322 21 10 3.2 17.7 0.00 0.00 0.00 48 1020.5
20211016234822 21 48 4.8 16.1 0.00 0.00 0.00 49 1020.4
20211016234321 21 90 1.6 16.1 0.00 0.00 0.00 49 1020.3
20211016233820 21 60 3.2 12.9 0.00 0.00 0.00 49 1020.3
20211016233318 21 355 4.8 12.9 0.00 0.00 0.00 49 1020.3
20211016232818 21 215 1.6 14.5 0.00 0.00 0.00 50 1020.2
20211016232319 21 35 4.8 14.5 0.00 0.00 0.00 49 1020.2
20211016231817 21 92 3.2 14.5 0.00 0.00 0.00 49 1020.1
20211016231317 21 205 1.6 12.9 0.00 0.00 0.00 48 1020.0
20211016230814 21 312 3.2 12.9 0.00 0.00 0.00 48 1019.9
20211016230312 22 9 1.6 16.1 0.00 0.00 0.00 48 1019.9
20211016225810 22 18 6.4 20.9 0.00 0.00 0.00 48 1019.9
20211016225309 22 13 6.4 20.9 0.00 0.00 0.00 48 1019.8
20211016224829 22 326 3.2 11.3 0.00 0.00 0.00 46 1019.7
20211016224328 22 68 0.0 17.7 0.00 0.00 0.00 47 1019.7
20211016223825 22 34 3.2 17.7 0.00 0.00 0.00 47 1019.7
20211016223322 23 299 1.6 8.0 0.00 0.00 0.00 47 1019.6
20211016222821 23 17 1.6 11.3 0.00 0.00 0.00 46 1019.5
20211016222320 23 340 3.2 11.3 0.00 0.00 0.00 46 1019.5
20211016221819 23 308 1.6 12.9 0.00 0.00 0.00 46 1019.5
20211016221319 23 355 1.6 19.3 0.00 0.00 0.00 45 1019.5
20211016220818 23 297 4.8 19.3 0.00 0.00 0.00 42 1019.5
20211016220313 24 333 3.2 11.3 0.00 0.00 0.00 43 1019.5
20211016215811 24 340 1.6 11.3 0.00 0.00 0.00 43 1019.4
20211016215308 24 226 1.6 16.1 0.00 0.00 0.00 43 1019.4
20211016214827 24 272 1.6 12.9 0.00 0.00 0.00 43 1019.5
20211016214308 25 299 4.8 16.1 0.00 0.00 0.00 42 1019.5
20211016213828 25 24 1.6 16.1 0.00 0.00 0.00 42 1019.4
20211016213327 25 30 1.6 14.5 0.00 0.00 0.00 42 1019.4
20211016212827 25 355 3.2 9.7 0.00 0.00 0.00 42 1019.4
20211016212325 25 12 1.6 12.9 0.00 0.00 0.00 41 1019.4
20211016211825 25 10 3.2 12.9 0.00 0.00 0.00 41 1019.3
20211016211325 25 329 3.2 11.3 0.00 0.00 0.00 44 1019.3
20211016210824 25 334 3.2 9.7 0.00 0.00 0.00 42 1019.4
20211016210322 25 285 3.2 12.9 0.00 0.00 0.00 43 1019.4
20211016205311 25 355 3.2 11.3 0.00 0.00 0.00 42 1019.4
20211016204810 25 278 3.2 11.3 0.00 0.00 0.00 41 1019.4
20211016204328 25 326 3.2 9.7 0.00 0.00 0.00 42 1019.4
20211016203827 25 29 3.2 9.7 0.00 0.00 0.00 41 1019.4
20211016203325 25 30 1.6 9.7 0.00 0.00 0.00 42 1019.3
20211016202825 25 292 3.2 9.7 0.00 0.00 0.00 42 1019.4
20211016202325 25 270 3.2 14.5 0.00 0.00 0.00 43 1019.3
20211016201824 25 355 1.6 14.5 0.00 0.00 0.00 43 1019.2
20211016201323 25 319 1.6 17.7 0.00 0.00 0.00 43 1019.2
20211016200824 25 347 4.8 17.7 0.00 0.00 0.00 44 1019.3
20211016200322 25 9 6.4 17.7 0.00 0.00 0.00 43 1019.4
20211016195820 25 15 8.0 17.7 0.00 0.00 0.00 42 1019.3
20211016195319 25 355 4.8 17.7 0.00 0.00 0.00 43 1019.4
20211016194818 25 18 3.2 16.1 0.00 0.00 0.00 44 1019.4
20211016194316 25 17 1.6 12.9 0.00 0.00 0.00 45 1019.4
20211016193816 25 304 1.6 8.0 0.00 0.00 0.00 46 1019.3
20211016193311 25 336 1.6 14.5 0.00 0.00 0.00 47 1019.3
20211016192811 25 360 1.6 14.5 0.00 0.00 0.00 47 1019.4
20211016192309 25 12 3.2 11.3 0.00 0.00 0.00 47 1019.3
20211016191828 25 76 1.6 14.5 0.00 0.00 0.00 48 1019.3
20211016191327 25 46 4.8 14.5 0.00 0.00 0.00 48 1019.5
20211016190823 25 62 4.8 11.3 0.00 0.00 0.00 48 1019.5
20211016190320 25 332 3.2 12.9 0.00 0.00 0.00 50 1019.5
20211016185817 25 297 4.8 12.9 0.00 0.00 0.00 50 1019.6
20211016185316 24 336 3.2 19.3 0.00 0.00 0.00 50 1019.7
20211016184815 24 42 3.2 14.5 0.00 0.00 0.00 53 1019.7
20211016184314 24 355 6.4 14.5 0.00 0.00 0.00 50 1019.7
20211016183814 24 350 6.4 12.9 0.00 0.00 0.00 51 1019.8
20211016183311 23 355 1.6 12.9 0.00 0.00 0.00 53 1019.8
20211016182809 23 46 3.2 11.3 0.00 0.00 0.00 53 1019.9
20211016182311 23 265 3.2 14.5 0.00 0.00 0.00 54 1019.9
20211016181828 23 202 3.2 11.3 0.00 0.00 0.00 54 1020.1
20211016181326 23 324 3.2 22.5 0.00 0.00 0.00 54 1020.2
20211016180825 24 51 1.6 9.7 0.00 0.00 0.00 55 1020.2
20211016180323 23 355 1.6 11.3 0.00 0.00 0.00 56 1020.3
20211016175820 23 360 3.2 12.9 0.00 0.00 0.00 56 1020.3
20211016175319 23 66 3.2 12.9 0.00 0.00 0.00 56 1020.4
20211016174819 23 336 3.2 14.5 0.00 0.00 0.00 56 1020.4
20211016174317 23 13 3.2 14.5 0.00 0.00 0.00 56 1020.4
20211016173819 23 355 3.2 17.7 0.00 0.00 0.00 55 1020.5
20211016173318 23 5 1.6 17.7 0.00 0.00 0.00 57 1020.6
20211016172816 23 53 3.2 12.9 0.00 0.00 0.00 56 1020.5
20211016172314 23 282 3.2 12.9 0.00 0.00 0.00 56 1020.5
20211016171811 23 294 3.2 12.9 0.00 0.00 0.00 57 1020.5
20211016171311 23 29 1.6 12.9 0.00 0.00 0.00 58 1020.6
20211016170809 23 17 4.8 11.3 0.00 0.00 0.00 57 1020.6
20211016170326 23 51 3.2 12.9 0.00 0.00 0.00 58 1020.6
20211016165824 23 225 3.2 12.9 0.00 0.00 0.00 57 1020.6
20211016165323 23 32 1.6 12.9 0.00 0.00 0.00 59 1020.6